#timestamp,LO_Frequency,Hit 
1505404815.1,286046996.0,N
1505404835.9,286047001.2,N
1505404855.7,286047001.0,N
1505404875.5,286046995.6,N
1505404895.4,286046992.1,N
1505404915.2,286046998.0,N
1505404935.0,286047000.5,N
1505404935.9,286047000.5,N
1505404955.8,286047006.0,N
1505404975.6,286047009.7,N
1505404995.4,286047013.4,N
1505405015.3,286047015.5,N
1505405035.1,286047015.0,N
1505405036.0,286047015.0,N
1505405055.8,286047009.3,N
1505405075.7,286047010.2,N
1505405095.5,286047009.6,N
1505405115.3,286047003.8,N
1505405135.1,286047004.6,N
1505405155.9,286047000.9,N
1505405175.7,286047007.3,N
1505405195.5,286047013.3,N
1505405215.4,286047018.3,N
1505405235.2,286047014.4,N
1505405255.0,286047008.7,N
1505405255.9,286047008.7,N
1505405275.8,286047003.1,N
1505405295.6,286046999.0,N
1505405315.4,286046997.1,N
1505405335.3,286047001.9,N
1505405355.1,286047001.3,N
1505405356.0,286047001.3,N
1505405375.8,286047003.3,N
1505405395.7,286046995.4,N
1505405415.5,286046997.6,N
1505405435.3,286047004.3,N
1505405455.1,286047003.6,N
1505405475.9,286046998.7,N
1505405495.7,286046994.9,N
1505405515.5,286046997.2,N
1505405535.4,286046998.2,N
1505405555.2,286047005.7,N
1505405575.0,286047007.5,N
1505405595.9,286047000.5,N
1505405615.7,286047002.6,N
1505405635.5,286047003.8,N
1505405655.4,286047008.8,N
1505405675.2,286047006.5,N
1505405695.0,286047012.4,N
1505405695.9,286047012.4,N
1505405715.8,286047012.7,N
1505405735.6,286047004.7,N
1505405755.4,286047002.4,N
1505405775.2,286047004.1,N
1505405795.1,286047003.5,N
1505405796.0,286047003.5,N
1505405815.8,286047001.2,N
1505405835.6,286046997.4,N
1505405855.5,286046993.0,N
1505405875.3,286046992.4,N
1505405895.1,286046997.6,N
1505405915.9,286046994.9,N
1505405935.7,286046993.3,N
1505405955.5,286047000.8,N
1505405975.4,286047000.3,N
1505405995.2,286047002.0,N
1505406015.0,286047002.1,N
1505406015.9,286047002.1,N
1505406035.8,286046998.7,N
1505406055.6,286046995.1,N
1505406075.4,286046996.9,N
1505406095.3,286047000.8,N
1505406115.1,286046998.8,N
1505406116.0,286046998.8,N
1505406135.8,286047001.1,N
1505406155.7,286046997.2,N
1505406175.5,286046999.0,N
1505406195.3,286047001.0,N
1505406215.1,286047000.9,N
1505406235.9,286046998.5,N
1505406255.7,286046998.3,N
1505406275.5,286047000.7,N
1505406295.4,286046994.9,N
1505406315.2,286046998.0,N
1505406335.0,286046999.6,N
1505406335.9,286046999.6,N
1505406355.8,286047001.1,N
1505406375.6,286046996.1,N
1505406395.4,286046992.9,N
1505406415.3,286046993.9,N
1505406435.1,286046997.4,N
1505406436.0,286046997.4,N
1505406455.8,286046996.5,N
1505406475.7,286047001.1,N
1505406495.5,286047003.6,N
1505406515.3,286046998.6,N
1505406535.2,286046995.8,N
1505406555.9,286046993.9,N
1505406575.7,286046995.9,N
1505406595.5,286046997.4,N
1505406615.4,286046996.1,N
1505406635.2,286046996.3,N
1505406655.0,286046998.7,N
1505406655.9,286046998.7,N
1505406675.8,286047000.3,N
1505406695.6,286047002.0,N
1505406715.4,286047007.2,N
1505406735.3,286047008.9,N
1505406755.1,286047015.0,P
1505406775.8,286047017.6,N
1505406795.7,286047014.9,N
1505406815.5,286047019.3,N
1505406835.3,286047025.8,P
1505406855.2,286047009.8,N
1505406875.0,286047012.9,N
1505406875.9,286047012.9,N
1505406895.7,286047013.4,N
1505406915.6,286047012.0,N
1505406935.4,286047010.5,N
1505406955.2,286047008.7,N
1505406975.1,286047005.4,N
1505406976.0,286047005.4,N
1505406995.8,286047001.0,N
1505407015.6,286047005.6,N
1505407035.5,286047017.0,N
1505407055.3,286047016.1,N
1505407075.1,286047021.7,P
1505407095.9,286047010.8,N
1505407115.7,286047004.7,N
1505407135.5,286047001.9,N
1505407155.4,286046995.5,N
1505407175.2,286046992.5,N
1505407195.0,286047001.7,N
1505407195.9,286047001.7,N
1505407215.8,286047011.1,N
1505407235.6,286047016.2,N
1505407255.4,286047015.2,N
1505407275.3,286047015.7,N
1505407295.1,286047019.9,N
1505407296.0,286047019.9,N
1505407315.8,286047021.2,N
1505407335.6,286047015.2,N
1505407355.5,286047017.3,N
1505407375.3,286047022.6,N
1505407395.1,286047018.1,N
1505407415.9,286047019.0,N
1505407435.7,286047024.0,N
1505407455.5,286047024.7,N
1505407475.4,286047020.8,N
1505407495.2,286047020.3,N
1505407515.0,286047024.5,N
1505407515.9,286047024.5,N
1505407535.8,286047026.7,N
1505407555.6,286047023.8,N
1505407575.4,286047020.7,N
1505407595.3,286047024.2,N
1505407615.1,286047026.5,N
1505407616.0,286047026.5,N
1505407635.8,286047019.6,N
1505407655.7,286047021.0,N
1505407675.5,286047030.9,P
1505407695.3,286047014.6,N
1505407715.2,286047017.6,N
1505407735.9,286047021.4,P
1505407755.7,286046996.5,P
1505407775.6,286046997.7,N
1505407795.4,286046999.3,N
1505407815.2,286047003.0,N
1505407835.1,286047003.6,N
1505407836.0,286047003.6,N
1505407855.8,286047000.9,N
1505407875.6,286046998.0,N
1505407895.4,286047000.2,N
1505407915.3,286046999.3,N
1505407935.1,286046997.2,N
1505407955.8,286046999.4,N
1505407975.7,286047001.4,N
1505407995.5,286047007.4,N
1505408015.3,286047007.4,N
1505408035.2,286047006.6,N
1505408055.9,286047005.3,N
1505408075.7,286047003.1,N
1505408095.6,286047003.5,N
1505408115.4,286046999.1,N
1505408135.2,286046991.8,N
1505408155.0,286046988.6,N
1505408155.9,286046988.6,N
1505408175.8,286046988.4,N
1505408195.6,286046983.9,N
1505408215.4,286046984.6,N
1505408235.3,286046987.1,N
1505408255.1,286046997.5,N
1505408275.8,286046998.4,N
1505408295.7,286046995.0,N
1505408315.5,286046996.6,N
1505408335.3,286047000.2,N
1505408355.2,286047003.2,N
1505408375.9,286046998.6,N
1505408395.7,286047000.9,N
